Location: Demmingen
(48.6757°N, 10.4375°E)
Time: 05:05:32
(UTC+00:00)

SL-16 R/B - Pass Details

Date: 10 August 2024
Orbit: 842 x 845 km, 71.0° (Epoch: 16 September)

Event Time Altitude Azimuth Distance (km) Brightness Sun altitude
Rises 02:39:26 0° 285° (WNW) 3,404 5.0 -12.6°
Reaches altitude 10° 02:44:26 10° 323° (NW) 2,474 4.7 -12.0°
Maximum altitude 02:45:37 11° 336° (NNW) 2,431 4.8 -11.8°
Drops below altitude 10° 02:46:49 10° 348° (NNW) 2,476 5.0 -11.7°
Sets 02:51:50 0° 26° (NNE) 3,415 6.7 -11.0°
